Find Starlink 5901

NORAD ID: 55999 Int'l Des: 2023-042 Owner: SPXS Country: US Constellation: starlink operational
LEOCIRCULAR

实时位置

正在加载3D地球...

关于 Starlink 5901

正在加载描述...

即将过境

Passes for default location (London). Set your location on the main map for personalized predictions.

高度历史

Loading altitude history...

两行轨道根数

1 55999U 23042P 26121.48539856 -.00007649 00000-0 -27603-3 0 9997
2 55999 43.0010 121.4559 0001143 285.1365 74.9360 15.26708924170947
Epoch: May 1, 2026 • Age: 11 hours

当前状态

高度 498.0 km
速度 7.62 km/s
星下点 -42.54°S, 153.28°W
发射日期 Mar 24, 2023
运行时间 3.1 years
类型 internet

技术详情

分类 Payload
质量 305.00 kg
干质量 290.00 kg
总质量 305.00 kg
长度 0.20 m
直径 2.80 m
跨度 9.00 m
形状 Box + pan
制造商 SPXS
平台类型 Starlink
阶段状态 In Orbit
所有者/国家 SPXS/US

Most Searched